Time,TemperatureF,DewpointF,PressureIn,WindDirection,WindDirectionDegrees,WindSpeedMPH,WindSpeedGustMPH,Humidity,HourlyPrecipIn,Conditions,Clouds,dailyrainin,SoftwareType,DateUTC
2013-05-19 00:00:00,56.0,55.0,-100.00,NE,55,0.0,7.0,94,-99.99,,,-99.99,,2013-05-19 04:00:00,
2013-05-19 00:23:00,56.0,55.0,-100.00,NE,55,0.0,7.0,94,-99.99,,,-99.99,,2013-05-19 04:23:00,
2013-05-19 00:33:00,56.0,55.0,-100.00,NE,55,0.0,7.0,94,-99.99,,,-99.99,,2013-05-19 04:33:00,
2013-05-19 00:42:00,56.0,55.0,-100.00,NE,55,0.0,7.0,94,-99.99,,,-99.99,,2013-05-19 04:42:00,
2013-05-19 00:53:00,56.0,55.0,-100.00,NE,55,0.0,7.0,94,-99.99,,,-99.99,,2013-05-19 04:53:00,
2013-05-19 01:00:00,57.0,55.0,-100.00,NW,325,1.0,8.0,94,-99.99,,,-99.99,,2013-05-19 05:00:00,
2013-05-19 01:22:00,57.0,55.0,-100.00,NW,325,1.0,8.0,94,-99.99,,,-99.99,,2013-05-19 05:22:00,
2013-05-19 01:32:00,57.0,55.0,-100.00,NW,325,1.0,8.0,94,-99.99,,,-99.99,,2013-05-19 05:32:00,
2013-05-19 01:42:00,57.0,55.0,-100.00,NW,325,1.0,8.0,94,-99.99,,,-99.99,,2013-05-19 05:42:00,
2013-05-19 01:52:00,57.0,55.0,-100.00,NW,325,1.0,8.0,94,-99.99,,,-99.99,,2013-05-19 05:52:00,
2013-05-19 02:00:00,57.0,55.0,-100.00,East,80,3.0,10.0,94,-99.99,,,-99.99,,2013-05-19 06:00:00,
2013-05-19 02:21:00,57.0,55.0,-100.00,East,80,3.0,10.0,94,-99.99,,,-99.99,,2013-05-19 06:21:00,
2013-05-19 02:32:00,57.0,55.0,-100.00,East,80,3.0,10.0,94,-99.99,,,-99.99,,2013-05-19 06:32:00,
2013-05-19 02:42:00,57.0,55.0,-100.00,East,80,3.0,10.0,94,-99.99,,,-99.99,,2013-05-19 06:42:00,
2013-05-19 02:52:00,57.0,55.0,-100.00,East,80,3.0,10.0,94,-99.99,,,-99.99,,2013-05-19 06:52:00,
2013-05-19 03:00:00,56.0,55.0,-100.00,ESE,117,0.0,7.0,94,-99.99,,,-99.99,,2013-05-19 07:00:00,
2013-05-19 03:22:00,56.0,55.0,-100.00,ESE,117,0.0,7.0,94,-99.99,,,-99.99,,2013-05-19 07:22:00,
2013-05-19 03:32:00,56.0,55.0,-100.00,ESE,117,0.0,7.0,94,-99.99,,,-99.99,,2013-05-19 07:32:00,
2013-05-19 03:42:00,56.0,55.0,-100.00,ESE,117,0.0,7.0,94,-99.99,,,-99.99,,2013-05-19 07:42:00,
2013-05-19 03:52:00,56.0,55.0,-100.00,ESE,117,0.0,7.0,94,-99.99,,,-99.99,,2013-05-19 07:52:00,
2013-05-19 05:00:00,56.0,55.0,-100.00,NE,52,0.0,8.0,94,-99.99,,,-99.99,,2013-05-19 09:00:00,
2013-05-19 05:21:00,56.0,55.0,-100.00,NE,52,0.0,8.0,94,-99.99,,,-99.99,,2013-05-19 09:21:00,
2013-05-19 05:33:00,56.0,55.0,-100.00,NE,52,0.0,8.0,94,-99.99,,,-99.99,,2013-05-19 09:33:00,
2013-05-19 05:43:00,56.0,55.0,-100.00,NE,52,0.0,8.0,94,-99.99,,,-99.99,,2013-05-19 09:43:00,
2013-05-19 05:53:00,56.0,55.0,-100.00,NE,52,0.0,8.0,94,-99.99,,,-99.99,,2013-05-19 09:53:00,
2013-05-19 06:00:00,57.0,55.0,-100.00,SSW,209,0.0,6.0,95,-99.99,,,-99.99,,2013-05-19 10:00:00,
2013-05-19 06:23:00,57.0,55.0,-100.00,SSW,209,0.0,6.0,95,-99.99,,,-99.99,,2013-05-19 10:23:00,
2013-05-19 06:33:00,57.0,55.0,-100.00,SSW,209,0.0,6.0,95,-99.99,,,-99.99,,2013-05-19 10:33:00,
2013-05-19 06:42:00,57.0,55.0,-100.00,SSW,209,0.0,6.0,95,-99.99,,,-99.99,,2013-05-19 10:42:00,
2013-05-19 06:53:00,57.0,55.0,-100.00,SSW,209,0.0,6.0,95,-99.99,,,-99.99,,2013-05-19 10:53:00,
2013-05-19 07:00:00,57.0,56.0,-100.00,SW,225,2.0,9.0,95,-99.99,,,-99.99,,2013-05-19 11:00:00,
2013-05-19 07:32:00,57.0,56.0,-100.00,SW,225,2.0,9.0,95,-99.99,,,-99.99,,2013-05-19 11:32:00,
2013-05-19 07:42:00,57.0,56.0,-100.00,SW,225,2.0,9.0,95,-99.99,,,-99.99,,2013-05-19 11:42:00,
2013-05-19 07:52:00,57.0,56.0,-100.00,SW,225,2.0,9.0,95,-99.99,,,-99.99,,2013-05-19 11:52:00,
2013-05-19 08:00:00,58.0,57.0,-100.00,SW,214,3.0,7.0,95,-99.99,,,-99.99,,2013-05-19 12:00:00,
2013-05-19 08:22:00,58.0,57.0,-100.00,SW,214,3.0,7.0,95,-99.99,,,-99.99,,2013-05-19 12:22:00,
2013-05-19 08:32:00,58.0,57.0,-100.00,SW,214,3.0,7.0,95,-99.99,,,-99.99,,2013-05-19 12:32:00,
2013-05-19 08:42:00,58.0,57.0,-100.00,SW,214,3.0,7.0,95,-99.99,,,-99.99,,2013-05-19 12:42:00,
2013-05-19 08:52:00,58.0,57.0,-100.00,SW,214,3.0,7.0,95,-99.99,,,-99.99,,2013-05-19 12:52:00,
2013-05-19 09:00:00,59.0,57.0,-100.00,NNE,20,3.0,8.0,94,-99.99,,,-99.99,,2013-05-19 13:00:00,
2013-05-19 09:21:00,59.0,57.0,-100.00,NNE,20,3.0,8.0,94,-99.99,,,-99.99,,2013-05-19 13:21:00,
2013-05-19 09:32:00,59.0,57.0,-100.00,NNE,20,3.0,8.0,94,-99.99,,,-99.99,,2013-05-19 13:32:00,
2013-05-19 09:42:00,59.0,57.0,-100.00,NNE,20,3.0,8.0,94,-99.99,,,-99.99,,2013-05-19 13:42:00,
2013-05-19 09:52:00,59.0,57.0,-100.00,NNE,20,3.0,8.0,94,-99.99,,,-99.99,,2013-05-19 13:52:00,
2013-05-19 10:00:00,59.0,58.0,-100.00,SSW,212,2.0,8.0,94,-99.99,,,-99.99,,2013-05-19 14:00:00,
2013-05-19 10:21:00,59.0,58.0,-100.00,SSW,212,2.0,8.0,94,-99.99,,,-99.99,,2013-05-19 14:21:00,
2013-05-19 10:32:00,59.0,58.0,-100.00,SSW,212,2.0,8.0,94,-99.99,,,-99.99,,2013-05-19 14:32:00,
2013-05-19 10:42:00,59.0,58.0,-100.00,SSW,212,2.0,8.0,94,-99.99,,,-99.99,,2013-05-19 14:42:00,
2013-05-19 10:52:00,59.0,58.0,-100.00,SSW,212,2.0,8.0,94,-99.99,,,-99.99,,2013-05-19 14:52:00,
2013-05-19 11:00:00,60.0,58.0,-100.00,SSW,196,1.0,7.0,94,-99.99,,,-99.99,,2013-05-19 15:00:00,
2013-05-19 11:33:00,60.0,58.0,-100.00,SSW,196,1.0,7.0,94,-99.99,,,-99.99,,2013-05-19 15:33:00,
2013-05-19 11:43:00,60.0,58.0,-100.00,SSW,196,1.0,7.0,94,-99.99,,,-99.99,,2013-05-19 15:43:00,
2013-05-19 11:53:00,60.0,58.0,-100.00,SSW,196,1.0,7.0,94,-99.99,,,-99.99,,2013-05-19 15:53:00,
2013-05-19 12:00:00,60.0,58.0,-100.00,SW,215,3.0,8.0,94,-99.99,,,-99.99,,2013-05-19 16:00:00,
2013-05-19 12:33:00,60.0,58.0,-100.00,SW,215,3.0,8.0,94,-99.99,,,-99.99,,2013-05-19 16:33:00,
2013-05-19 12:42:00,60.0,58.0,-100.00,SW,215,3.0,8.0,94,-99.99,,,-99.99,,2013-05-19 16:42:00,
2013-05-19 12:52:00,60.0,58.0,-100.00,SW,215,3.0,8.0,94,-99.99,,,-99.99,,2013-05-19 16:52:00,
2013-05-19 13:00:00,61.0,59.0,-100.00,ESE,102,0.0,12.0,94,-99.99,,,-99.99,,2013-05-19 17:00:00,
2013-05-19 13:22:00,61.0,59.0,-100.00,ESE,102,0.0,12.0,94,-99.99,,,-99.99,,2013-05-19 17:22:00,
2013-05-19 13:32:00,61.0,59.0,-100.00,ESE,102,0.0,12.0,94,-99.99,,,-99.99,,2013-05-19 17:32:00,
2013-05-19 13:43:00,61.0,59.0,-100.00,ESE,102,0.0,12.0,94,-99.99,,,-99.99,,2013-05-19 17:43:00,
2013-05-19 13:52:00,61.0,59.0,-100.00,ESE,102,0.0,12.0,94,-99.99,,,-99.99,,2013-05-19 17:52:00,
2013-05-19 14:00:00,60.0,58.0,-100.00,SE,145,0.0,11.0,93,-99.99,,,-99.99,,2013-05-19 18:00:00,
2013-05-19 14:22:00,60.0,58.0,-100.00,SE,145,0.0,11.0,93,-99.99,,,-99.99,,2013-05-19 18:22:00,
2013-05-19 14:32:00,60.0,58.0,-100.00,SE,145,0.0,11.0,93,-99.99,,,-99.99,,2013-05-19 18:32:00,
2013-05-19 14:43:00,60.0,58.0,-100.00,SE,145,0.0,11.0,93,-99.99,,,-99.99,,2013-05-19 18:43:00,
2013-05-19 14:53:00,60.0,58.0,-100.00,SE,145,0.0,11.0,93,-99.99,,,-99.99,,2013-05-19 18:53:00,
2013-05-19 15:00:00,61.0,59.0,-100.00,ENE,65,2.0,8.0,93,-99.99,,,-99.99,,2013-05-19 19:00:00,
2013-05-19 15:22:00,61.0,59.0,-100.00,ENE,65,2.0,8.0,93,-99.99,,,-99.99,,2013-05-19 19:22:00,
2013-05-19 15:32:00,61.0,59.0,-100.00,ENE,65,2.0,8.0,93,-99.99,,,-99.99,,2013-05-19 19:32:00,
2013-05-19 15:42:00,61.0,59.0,-100.00,ENE,65,2.0,8.0,93,-99.99,,,-99.99,,2013-05-19 19:42:00,
2013-05-19 15:52:00,61.0,59.0,-100.00,ENE,65,2.0,8.0,93,-99.99,,,-99.99,,2013-05-19 19:52:00,
2013-05-19 16:00:00,61.0,60.0,-100.00,NNE,26,1.0,9.0,94,-99.99,,,-99.99,,2013-05-19 20:00:00,
2013-05-19 16:22:00,61.0,60.0,-100.00,NNE,26,1.0,9.0,94,-99.99,,,-99.99,,2013-05-19 20:22:00,
2013-05-19 16:32:00,61.0,60.0,-100.00,NNE,26,1.0,9.0,94,-99.99,,,-99.99,,2013-05-19 20:32:00,
2013-05-19 16:42:00,61.0,60.0,-100.00,NNE,26,1.0,9.0,94,-99.99,,,-99.99,,2013-05-19 20:42:00,
2013-05-19 16:52:00,61.0,60.0,-100.00,NNE,26,1.0,9.0,94,-99.99,,,-99.99,,2013-05-19 20:52:00,
2013-05-19 17:00:00,61.0,60.0,-100.00,SW,234,3.0,8.0,94,-99.99,,,-99.99,,2013-05-19 21:00:00,
2013-05-19 17:22:00,61.0,60.0,-100.00,SW,234,3.0,8.0,94,-99.99,,,-99.99,,2013-05-19 21:22:00,
2013-05-19 17:32:00,61.0,60.0,-100.00,SW,234,3.0,8.0,94,-99.99,,,-99.99,,2013-05-19 21:32:00,
2013-05-19 17:43:00,61.0,60.0,-100.00,SW,234,3.0,8.0,94,-99.99,,,-99.99,,2013-05-19 21:43:00,
2013-05-19 17:53:00,61.0,60.0,-100.00,SW,234,3.0,8.0,94,-99.99,,,-99.99,,2013-05-19 21:53:00,
2013-05-19 18:00:00,61.0,60.0,-100.00,South,173,4.0,7.0,94,-99.99,,,-99.99,,2013-05-19 22:00:00,
2013-05-19 18:23:00,61.0,60.0,-100.00,South,173,4.0,7.0,94,-99.99,,,-99.99,,2013-05-19 22:23:00,
2013-05-19 18:33:00,61.0,60.0,-100.00,South,173,4.0,7.0,94,-99.99,,,-99.99,,2013-05-19 22:33:00,
2013-05-19 18:43:00,61.0,60.0,-100.00,South,173,4.0,7.0,94,-99.99,,,-99.99,,2013-05-19 22:43:00,
2013-05-19 18:53:00,61.0,60.0,-100.00,South,173,4.0,7.0,94,-99.99,,,-99.99,,2013-05-19 22:53:00,
2013-05-19 19:00:00,61.0,59.0,-100.00,North,0,0.0,4.0,95,-99.99,,,-99.99,,2013-05-19 23:00:00,
2013-05-19 19:32:00,61.0,59.0,-100.00,North,0,0.0,4.0,95,-99.99,,,-99.99,,2013-05-19 23:32:00,
2013-05-19 19:42:00,61.0,59.0,-100.00,North,0,0.0,4.0,95,-99.99,,,-99.99,,2013-05-19 23:42:00,
2013-05-19 19:52:00,61.0,59.0,-100.00,North,0,0.0,4.0,95,-99.99,,,-99.99,,2013-05-19 23:52:00,
2013-05-19 20:00:00,61.0,59.0,-100.00,North,7,0.0,4.0,95,-99.99,,,-99.99,,2013-05-20 00:00:00,
2013-05-19 20:22:00,61.0,59.0,-100.00,North,7,0.0,4.0,95,-99.99,,,-99.99,,2013-05-20 00:22:00,
2013-05-19 20:32:00,61.0,59.0,-100.00,North,7,0.0,4.0,95,-99.99,,,-99.99,,2013-05-20 00:32:00,
2013-05-19 20:42:00,61.0,59.0,-100.00,North,7,0.0,4.0,95,-99.99,,,-99.99,,2013-05-20 00:42:00,
2013-05-19 20:52:00,61.0,59.0,-100.00,North,7,0.0,4.0,95,-99.99,,,-99.99,,2013-05-20 00:52:00,
2013-05-19 21:00:00,60.0,59.0,-100.00,South,171,0.0,3.0,96,-99.99,,,-99.99,,2013-05-20 01:00:00,
2013-05-19 21:22:00,60.0,59.0,-100.00,South,171,0.0,3.0,96,-99.99,,,-99.99,,2013-05-20 01:22:00,
2013-05-19 21:32:00,60.0,59.0,-100.00,South,171,0.0,3.0,96,-99.99,,,-99.99,,2013-05-20 01:32:00,
2013-05-19 21:42:00,60.0,59.0,-100.00,South,171,0.0,3.0,96,-99.99,,,-99.99,,2013-05-20 01:42:00,
2013-05-19 21:52:00,60.0,59.0,-100.00,South,171,0.0,3.0,96,-99.99,,,-99.99,,2013-05-20 01:52:00,
2013-05-19 22:00:00,60.0,59.0,-100.00,SSW,206,0.0,3.0,96,-99.99,,,-99.99,,2013-05-20 02:00:00,
2013-05-19 22:22:00,60.0,59.0,-100.00,SSW,206,0.0,3.0,96,-99.99,,,-99.99,,2013-05-20 02:22:00,
2013-05-19 22:32:00,60.0,59.0,-100.00,SSW,206,0.0,3.0,96,-99.99,,,-99.99,,2013-05-20 02:32:00,
2013-05-19 22:42:00,60.0,59.0,-100.00,SSW,206,0.0,3.0,96,-99.99,,,-99.99,,2013-05-20 02:42:00,
2013-05-19 22:52:00,60.0,59.0,-100.00,SSW,206,0.0,3.0,96,-99.99,,,-99.99,,2013-05-20 02:52:00,
2013-05-19 23:00:00,60.0,59.0,-100.00,South,183,0.0,2.0,96,-99.99,,,-99.99,,2013-05-20 03:00:00,
2013-05-19 23:21:00,60.0,59.0,-100.00,South,183,0.0,2.0,96,-99.99,,,-99.99,,2013-05-20 03:21:00,
2013-05-19 23:33:00,60.0,59.0,-100.00,South,183,0.0,2.0,96,-99.99,,,-99.99,,2013-05-20 03:33:00,
2013-05-19 23:43:00,60.0,59.0,-100.00,South,183,0.0,2.0,96,-99.99,,,-99.99,,2013-05-20 03:43:00,
2013-05-19 23:53:00,60.0,59.0,-100.00,South,183,0.0,2.0,96,-99.99,,,-99.99,,2013-05-20 03:53:00,